[[{"header":{"parameterUnit":"m.s-1","parameterCategory":2,"la1":30.2991,"la2":30.254,"lo1":-89.0895,"lo2":-89.0444,"dy":0.0017,"dx":0.0017,"nx":28,"ny":28,"refTime":"2026-02-10T09:00:00:Z","depth":"0","parameterNumber":2,"parameterNumberName":"U-component_of_CURRENTS"},"data":[0,0,0,0,0,0,0,0,0,0,0,0,0,0,0,0,0,0,0,0,0,0,0,0,0,0,0,0,0,0,0,0,0,0,0,0,0,0,0,0,0,0,0,0,0,0,0,0,0,0,0,0,0,0,0,0,0,0,0.2001,0.1998,0,0.1708,0.1705,0.1702,0.1487,0.1485,0.1483,0.1481,0.1464,0.1465,0.1467,0,0,0,0,0,0,0,0,0,0,0,0,0,0.2258,0.2255,0.2001,0.1997,0.1993,0.1709,0.1705,0.1701,0.1487,0.1485,0.1482,0.148,0.1463,0.1465,0.1467,0,0,0,0,0,0,0,0,0,0,0,0,0,0.2077,0.2254,0.2002,0.1851,0.1834,0.171,0.1705,0.17,0.1488,0.1485,0.1482,0.1479,0.1463,0.1465,0.1467,0.1543,0,0,0.1474,0.1475,0,0,0,0,0,0,0,0,0.2087,0.2068,0.1877,0.1861,0.1842,0.1629,0.1788,0.1661,0.1489,0.1622,0.1481,0.1477,0.1545,0.154,0.1492,0.1542,0.1542,0.1474,0.1475,0.1476,0.1477,0,0,0,0,0,0,0,0.21,0.2078,0.1888,0.1873,0.1851,0.1757,0.1729,0.1762,0.1612,0.161,0.1593,0.1558,0.1538,0.149,0.1491,0.1541,0.1474,0.1476,0.1477,0.1478,0.1722,0.1727,0,0,0,0,0,0,0.2141,0.2091,0.1897,0.1879,0.1957,0.1755,0.1724,0.1702,0.1605,0.1584,0.1561,0.1549,0.1488,0.1488,0.149,0.1621,0.1476,0.1478,0.148,0.1717,0.1724,0.1729,0,0,0,0,0,0,0.2148,0.2127,0.1909,0.1975,0.194,0.1755,0.1731,0.1698,0.1644,0.1564,0.1548,0.1539,0.1485,0.1487,0.1549,0.1617,0.1479,0.1481,0.1711,0.1719,0.1726,0.1856,0,0,0,0,0,0,0.2157,0.2132,0.2138,0.1979,0.1938,0.1879,0.1733,0.1695,0.1626,0.1607,0.1543,0.1535,0.1483,0.1546,0.1551,0.1618,0.1483,0.1705,0.1715,0.1724,0.1846,0.1868,0.1887,0,0,0,0,0,0.2168,0.2186,0.2141,0.2116,0.1951,0.1882,0.1855,0.1711,0.1629,0.1644,0.1597,0.1537,0.1611,0.1553,0.1557,0.1626,0.17,0.1712,0.1723,0.1836,0.1863,0.1886,0,0,0,0,0,0,0.2287,0.2161,0.2108,0.2083,0.2013,0.1845,0.1831,0.1736,0.1698,0.1691,0.1601,0.1596,0.1675,0.1657,0.1594,0.1733,0.1649,0.1662,0.1734,0.1759,0.1779,0.1744,0.1485,0,0,0,0,0,0.2326,0.2306,0.2187,0.2169,0.2149,0.2,0.1951,0.1869,0.1801,0.1773,0.1718,0.1704,0.173,0.1746,0.1763,0.1849,0.1826,0.1903,0.1923,0.194,0.1922,0.1961,0.1981,0.1767,0.1767,0.1767,0,0,0.2356,0.229,0.2271,0.2195,0.2121,0.2098,0.1964,0.1924,0.1903,0.1796,0.1785,0.1779,0.1772,0.1847,0.1883,0.1837,0.2005,0.1955,0.1969,0.194,0.1975,0.1994,0.2012,0.1775,0.1774,0.1772,0,0,0.2403,0.2373,0.2368,0.2334,0.2258,0.2191,0.2194,0.2072,0.203,0.2048,0.1963,0.1994,0.2021,0.2007,0.2012,0.2173,0.2112,0.2201,0.2269,0.231,0.2325,0.2339,0.2381,0.2397,0.2209,0.2209,0.2209,0,0.2445,0.2414,0.2362,0.2356,0.2323,0.2245,0.2238,0.2211,0.212,0.2102,0.2084,0.2086,0.2091,0.2142,0.2193,0.2213,0.2222,0.2165,0.233,0.2342,0.2354,0.2393,0.2409,0.2217,0.2216,0.2215,0.2215,0,0.2471,0.246,0.2471,0.2434,0.2419,0.2418,0.2374,0.2374,0.2332,0.2271,0.2315,0.2316,0.2292,0.2339,0.2314,0.2404,0.2384,0.2347,0.2249,0.2382,0.2417,0.2431,0.2228,0.2225,0.2223,0.2221,0,0,0.2523,0.2488,0.249,0.2479,0.246,0.2442,0.2477,0.2454,0.2437,0.2444,0.242,0.25,0.2455,0.246,0.2444,0.2496,0.2616,0.2465,0.2464,0.2475,0.2714,0.2567,0.2568,0.2603,0.2606,0.2608,0.272,0,0.2551,0.2545,0.2522,0.2538,0.254,0.2513,0.2532,0.252,0.2512,0.2497,0.2523,0.2522,0.2518,0.2512,0.2571,0.2578,0.2652,0.2589,0.261,0.261,0.2436,0.2578,0.2371,0.244,0.2733,0.2735,0.2737,0,0.2583,0.2568,0.2573,0.2562,0.256,0.2568,0.2565,0.257,0.257,0.256,0.2569,0.2553,0.2612,0.26,0.2699,0.2656,0.2705,0.2733,0.2737,0.2547,0.2487,0.2351,0.2453,0.2289,0.2757,0.2755,0.2754,0,0.2628,0.2614,0.2612,0.261,0.2591,0.2593,0.2587,0.2581,0.2577,0.2583,0.2574,0.2619,0.263,0.2705,0.2749,0.2735,0.2857,0.2836,0.2764,0.2755,0.255,0.2516,0.2453,0.2942,0.2942,0.2941,0.2941,0,0.2668,0.2682,0.2628,0.2633,0.2636,0.2614,0.2618,0.2613,0.2599,0.2596,0.2595,0.2604,0.266,0.2712,0.2774,0.2794,0.2879,0.279,0.2775,0.2596,0.2567,0.2386,0.2353,0.2945,0.2944,0.2944,0.2943,0,0.2741,0.2702,0.2709,0.2673,0.266,0.2666,0.2634,0.2632,0.261,0.2608,0.2609,0.2612,0.2662,0.2716,0.2823,0.2795,0.2729,0.2848,0.2628,0.2582,0.2301,0.2285,0.2193,0.2158,0.2775,0.2772,0.2769,0,0.2778,0.278,0.2742,0.2731,0.2718,0.2703,0.269,0.2653,0.2641,0.2613,0.2618,0.2637,0.2649,0.2708,0.2662,0.2708,0.2658,0.2523,0.2447,0.226,0.2235,0.2195,0.2173,0.227,0.2264,0.2259,0.2254,0,0.2849,0.2831,0.2817,0.2794,0.2775,0.275,0.2723,0.2709,0.2661,0.2644,0.2624,0.2626,0.2592,0.2485,0.2465,0.2459,0.2304,0.2413,0.2283,0.1881,0.1771,0.1736,0.2239,0.2208,0.2212,0.2216,0.2218,0.222,0.2899,0.2902,0.2863,0.2848,0.2824,0.2791,0.2767,0.2727,0.2693,0.2619,0.2633,0.2551,0.2343,0.2251,0.2199,0.1842,0.202,0.1722,0.1744,0.174,0.1605,0.1993,0.1887,0.189,0.1892,0.1895,0.1896,0,0.2933,0.2919,0.2913,0.2875,0.2856,0.2829,0.2777,0.2727,0.2676,0.2574,0.2531,0.2239,0.1998,0.1771,0.1349,0.1175,0.117,0.1103,0.1001,0.1041,0.1415,0.1281,0.0957,0.0957,0.0957,0.0958,0.0958,0.0958,0.2942,0.2931,0.2919,0.2892,0.287,0.2812,0.2774,0.269,0.2589,0.2339,0.2111,0.1997,0.1588,0.1034,0.0609,0.0582,0.0547,0.0471,0.0603,0.081,0.0869,0.0925,0.0788,0.0366,0.0365,0.0131,0.0129,0.0127]},{"header":{"parameterUnit":"m.s-1","parameterCategory":2,"la1":30.2991,"la2":30.254,"lo1":-89.0895,"lo2":-89.0444,"dy":0.0017,"dx":0.0017,"nx":28,"ny":28,"refTime":"2026-02-10T09:00:00:Z","depth":"0","parameterNumber":3,"parameterNumberName":"V-component_of_CURRENTS"},"data":[0,0,0,0,0,0,0,0,0,0,0,0,0,0,0,0,0,0,0,0,0,0,0,0,0,0,0,0,0,0,0,0,0,0,0,0,0,0,0,0,0,0,0,0,0,0,0,0,0,0,0,0,0,0,0,0,0,0,0.0365,0.0365,0,0.0387,0.0388,0.0388,0.0408,0.0408,0.0408,0.0408,0.0424,0.0424,0.0425,0,0,0,0,0,0,0,0,0,0,0,0,0,0.0302,0.0303,0.0365,0.0365,0.0365,0.0387,0.0388,0.0389,0.0408,0.0408,0.0408,0.0408,0.0424,0.0424,0.0425,0,0,0,0,0,0,0,0,0,0,0,0,0,0.033,0.0304,0.0365,0.0375,0.0376,0.0387,0.0388,0.0389,0.0408,0.0408,0.0408,0.0408,0.0423,0.0424,0.0425,0.0431,0,0,0.0427,0.0427,0,0,0,0,0,0,0,0,0.0329,0.0333,0.0374,0.0375,0.0376,0.0392,0.0371,0.0402,0.0408,0.0399,0.0408,0.0408,0.0411,0.0412,0.0421,0.0432,0.0433,0.0427,0.0428,0.0428,0.0428,0,0,0,0,0,0,0,0.0327,0.0332,0.0377,0.0374,0.0375,0.0365,0.037,0.0377,0.0408,0.04,0.0401,0.0398,0.0411,0.0421,0.0422,0.0433,0.0427,0.0428,0.0428,0.0429,0.0461,0.0462,0,0,0,0,0,0,0.032,0.033,0.0377,0.0378,0.0348,0.0366,0.0372,0.0389,0.0408,0.0409,0.0398,0.0399,0.0419,0.0421,0.0422,0.0422,0.0428,0.0429,0.0429,0.0461,0.0461,0.0462,0,0,0,0,0,0,0.0319,0.0325,0.0376,0.035,0.0356,0.0367,0.0387,0.039,0.0395,0.0406,0.0408,0.04,0.0419,0.0421,0.0438,0.0423,0.0429,0.043,0.046,0.0461,0.0462,0.0427,0,0,0,0,0,0,0.0317,0.0325,0.0334,0.0351,0.0357,0.0377,0.0387,0.039,0.0392,0.0394,0.0408,0.041,0.042,0.0437,0.0439,0.0424,0.043,0.046,0.0461,0.0461,0.0428,0.0426,0.0425,0,0,0,0,0,0.0315,0.0326,0.0335,0.034,0.0371,0.0376,0.0379,0.0388,0.0392,0.0394,0.0414,0.0409,0.0443,0.0439,0.0441,0.0425,0.0459,0.046,0.0461,0.0428,0.0427,0.0425,0,0,0,0,0,0,0.0289,0.0329,0.034,0.0359,0.0364,0.0378,0.0381,0.0385,0.0402,0.0404,0.0418,0.0422,0.043,0.044,0.0434,0.044,0.0449,0.045,0.0423,0.0422,0.042,0.0409,0.0431,0,0,0,0,0,0.0291,0.0315,0.0338,0.0345,0.0357,0.0369,0.0372,0.0375,0.039,0.0397,0.041,0.0425,0.0436,0.0439,0.0453,0.0456,0.0492,0.0449,0.0447,0.0446,0.044,0.0504,0.0508,0.0465,0.0465,0.0465,0,0,0.0272,0.0302,0.0308,0.0341,0.0353,0.0352,0.0371,0.0373,0.0365,0.0395,0.04,0.0423,0.0439,0.0446,0.0449,0.045,0.0479,0.0448,0.0446,0.0441,0.0505,0.051,0.0513,0.0466,0.0466,0.0465,0,0,0.0238,0.0286,0.0288,0.0303,0.0321,0.0335,0.0333,0.0352,0.0361,0.0372,0.039,0.0409,0.0428,0.0435,0.044,0.0443,0.0474,0.0444,0.0421,0.0483,0.0487,0.0491,0.0546,0.0555,0.0439,0.0439,0.0439,0,0.0204,0.0228,0.0281,0.0285,0.029,0.0325,0.0312,0.0325,0.0342,0.0354,0.037,0.0414,0.0421,0.0427,0.0424,0.0436,0.0482,0.042,0.0481,0.0486,0.049,0.0546,0.0556,0.0437,0.0437,0.0438,0.0438,0,0.0168,0.0188,0.0192,0.0218,0.0232,0.023,0.0259,0.0274,0.0298,0.0316,0.0345,0.0377,0.0404,0.0404,0.0409,0.0434,0.0461,0.0476,0.0481,0.0492,0.055,0.0562,0.0435,0.0436,0.0436,0.0436,0,0,0.0064,0.015,0.0144,0.0165,0.0202,0.021,0.0215,0.0236,0.0255,0.0283,0.0314,0.0324,0.036,0.0369,0.0387,0.0425,0.0489,0.0457,0.0461,0.0505,0.0633,0.06,0.061,0.0524,0.0526,0.0527,0.0662,0,0.0005,0.0023,0.0073,0.0071,0.0087,0.0141,0.0152,0.018,0.0224,0.027,0.0309,0.0349,0.0341,0.0369,0.0402,0.0482,0.0518,0.0451,0.0621,0.0626,0.059,0.0621,0.0621,0.0736,0.0673,0.0675,0.0677,0,-0.0072,-0.0032,-0.0029,0.0044,0.0055,0.0057,0.0114,0.0129,0.0201,0.0243,0.0289,0.0342,0.0392,0.04,0.052,0.0486,0.0545,0.06,0.0608,0.0594,0.0613,0.0716,0.076,0.0741,0.0695,0.0693,0.0692,0,-0.0161,-0.0115,-0.01,-0.0082,0.0,0.0012,0.0049,0.0114,0.0157,0.0234,0.0294,0.0358,0.0429,0.0504,0.0601,0.0579,0.0755,0.0747,0.0766,0.0765,0.0804,0.0802,0.0842,0.0825,0.0824,0.0824,0.0824,0,-0.0238,-0.0233,-0.0133,-0.0123,-0.0092,-0.003,0.001,0.0058,0.0147,0.0221,0.0278,0.0363,0.0465,0.0575,0.0634,0.0742,0.0786,0.0767,0.0799,0.0791,0.0786,0.0801,0.0792,0.0829,0.0828,0.0827,0.0826,0,-0.0334,-0.0279,-0.0246,-0.0156,-0.0129,-0.0106,0.0001,0.005,0.0124,0.0229,0.0262,0.0401,0.0551,0.0645,0.08,0.0799,0.09,0.0915,0.0888,0.0911,0.0865,0.0854,0.0952,0.0967,0.0955,0.0955,0.0955,0,-0.0369,-0.0361,-0.0268,-0.0228,-0.0184,-0.0126,-0.0069,0.0021,0.009,0.0261,0.0321,0.0486,0.0623,0.0817,0.0876,0.0978,0.0959,0.0979,0.0908,0.0861,0.0875,0.0872,0.0878,0.0964,0.0964,0.0964,0.0964,0,-0.0407,-0.0379,-0.0327,-0.0252,-0.0192,-0.012,-0.0033,0.0018,0.0148,0.025,0.0425,0.0549,0.0743,0.0883,0.0976,0.1,0.0959,0.0978,0.0963,0.0901,0.0874,0.0905,0.0868,0.0965,0.0965,0.0965,0.0965,0.0965,-0.0412,-0.0384,-0.0305,-0.0244,-0.0178,-0.0098,-0.0038,0.0074,0.0193,0.0399,0.0493,0.073,0.0881,0.1033,0.1018,0.0977,0.0996,0.0948,0.095,0.0958,0.0929,0.0867,0.0964,0.0964,0.0964,0.0964,0.0964,0,-0.0375,-0.0337,-0.0284,-0.0197,-0.0137,-0.0102,0.0012,0.0095,0.0243,0.0483,0.0657,0.0937,0.1032,0.1086,0.1057,0.0982,0.0953,0.0935,0.0942,0.0958,0.0944,0.0894,0.094,0.094,0.094,0.094,0.094,0.094,-0.0335,-0.0278,-0.0262,-0.0166,-0.0113,-0.0018,0.0045,0.0175,0.0353,0.0675,0.0922,0.111,0.1191,0.1103,0.1005,0.0964,0.0957,0.0928,0.0938,0.0914,0.0915,0.0916,0.0866,0.0905,0.0905,0.096,0.0961,0.0961]}],[{"header":{"parameterUnit":"m.s-1","parameterCategory":2,"la1":30.2991,"la2":30.254,"lo1":-89.0895,"lo2":-89.0444,"dy":0.0017,"dx":0.0017,"nx":28,"ny":28,"refTime":"2026-02-10T09:00:00:Z","depth":"2","parameterNumber":2,"parameterNumberName":"U-component_of_CURRENTS"},"data":[0,0,0,0,0,0,0,0,0,0,0,0,0,0,0,0,0,0,0,0,0,0,0,0,0,0,0,0,0,0,0,0,0,0,0,0,0,0,0,0,0,0,0,0,0,0,0,0,0,0,0,0,0,0,0,0,0,0,0.0712,0.0712,0,0.0735,0.0735,0.0736,0.0715,0.0714,0.0713,0.0713,0.0699,0.0699,0.0699,0,0,0,0,0,0,0,0,0,0,0,0,0,0.0635,0.0636,0.0712,0.0713,0.0713,0.0735,0.0736,0.0736,0.0715,0.0714,0.0713,0.0712,0.0699,0.0699,0.0699,0,0,0,0,0,0,0,0,0,0,0,0,0,0.0662,0.0637,0.0712,0.0707,0.0707,0.0735,0.0736,0.0736,0.0715,0.0714,0.0713,0.0712,0.0699,0.0699,0.0699,0.0722,0,0,0.0701,0.0701,0,0,0,0,0,0,0,0,0.0661,0.0665,0.0707,0.0707,0.0707,0.0723,0.0703,0.073,0.0715,0.071,0.0713,0.0711,0.0705,0.0705,0.071,0.0722,0.0721,0.0701,0.0701,0.0701,0.0701,0,0,0,0,0,0,0,0.0659,0.0664,0.0719,0.0708,0.0708,0.0698,0.0701,0.0708,0.0711,0.071,0.0709,0.0715,0.0705,0.0709,0.0709,0.0721,0.0701,0.0701,0.0701,0.0701,0.0755,0.0756,0,0,0,0,0,0,0.0662,0.0662,0.0719,0.072,0.0683,0.0701,0.0703,0.0717,0.0712,0.0711,0.0716,0.0714,0.0709,0.0709,0.0708,0.0744,0.0701,0.0701,0.0702,0.0754,0.0755,0.0757,0,0,0,0,0,0,0.0661,0.0667,0.0718,0.0692,0.0698,0.0703,0.0719,0.0718,0.0728,0.0717,0.0714,0.0726,0.0708,0.0708,0.0724,0.0742,0.0702,0.0702,0.0752,0.0754,0.0756,0.0809,0,0,0,0,0,0,0.0658,0.0667,0.0672,0.0693,0.07,0.0735,0.072,0.0719,0.0734,0.0731,0.0725,0.0722,0.0707,0.0723,0.0724,0.0742,0.0702,0.0751,0.0753,0.0755,0.0806,0.0812,0.0818,0,0,0,0,0,0.0656,0.065,0.0672,0.0678,0.0709,0.0736,0.0739,0.0737,0.0735,0.0741,0.0743,0.0723,0.0737,0.0725,0.0726,0.0744,0.075,0.0753,0.0755,0.0803,0.0811,0.0818,0,0,0,0,0,0,0.0625,0.0649,0.0673,0.0679,0.0714,0.0733,0.0736,0.0747,0.0755,0.0749,0.0742,0.074,0.0762,0.0749,0.0736,0.0767,0.0739,0.0742,0.0775,0.0783,0.0789,0.0833,0.0703,0,0,0,0,0,0.0625,0.0629,0.0667,0.0682,0.0699,0.0728,0.0738,0.0742,0.0755,0.0758,0.0764,0.0765,0.0775,0.0775,0.078,0.0799,0.0819,0.081,0.0817,0.0822,0.0859,0.0924,0.0941,0.0765,0.0765,0.0765,0,0,0.0623,0.0637,0.0642,0.0677,0.0704,0.0718,0.073,0.0748,0.0765,0.0756,0.078,0.0791,0.0787,0.0807,0.0815,0.0797,0.0873,0.0825,0.083,0.0865,0.0929,0.0947,0.0962,0.0767,0.0767,0.0766,0,0,0.0619,0.0638,0.0643,0.0662,0.0698,0.0713,0.0724,0.0758,0.0779,0.0802,0.081,0.0851,0.0839,0.087,0.0874,0.0923,0.0909,0.0902,0.0964,0.1026,0.1042,0.1056,0.1066,0.1081,0.0898,0.0899,0.0899,0,0.0628,0.0643,0.0652,0.0661,0.0692,0.0712,0.0744,0.0753,0.079,0.0837,0.0807,0.0882,0.0879,0.0947,0.096,0.0942,0.0952,0.0932,0.1037,0.1052,0.1065,0.1072,0.1088,0.0901,0.0901,0.0901,0.0901,0,0.0619,0.0643,0.0651,0.0675,0.0698,0.0729,0.0756,0.0791,0.0815,0.0843,0.0927,0.0946,0.1003,0.0997,0.0988,0.109,0.1055,0.1041,0.1021,0.1087,0.1088,0.1104,0.0906,0.0904,0.0904,0.0903,0,0,0.0648,0.0652,0.0662,0.0698,0.072,0.075,0.0783,0.0859,0.0906,0.0937,0.103,0.1069,0.111,0.1123,0.1136,0.1189,0.1277,0.1158,0.1159,0.1173,0.1379,0.1244,0.1246,0.1277,0.128,0.1284,0.1327,0,0.0676,0.0697,0.0695,0.0749,0.0784,0.0819,0.0851,0.0904,0.095,0.1024,0.109,0.1154,0.1141,0.1184,0.1242,0.1279,0.1327,0.1265,0.1311,0.1312,0.119,0.1264,0.1138,0.1158,0.1342,0.1344,0.1346,0,0.0699,0.0713,0.0764,0.083,0.0852,0.0873,0.0981,0.1013,0.1096,0.1136,0.1225,0.1255,0.1368,0.1331,0.1448,0.1403,0.1413,0.1422,0.1424,0.1303,0.1208,0.113,0.1179,0.1372,0.137,0.1368,0.1366,0,0.0745,0.0789,0.0843,0.0856,0.0897,0.0957,0.0996,0.1066,0.1123,0.123,0.1269,0.1384,0.144,0.1505,0.1511,0.1498,0.1599,0.1577,0.1463,0.1451,0.136,0.1332,0.1674,0.1673,0.1673,0.1673,0.1673,0,0.0792,0.0846,0.0869,0.089,0.0972,0.0997,0.1094,0.1142,0.1221,0.1283,0.1342,0.1396,0.1489,0.1534,0.1553,0.154,0.1633,0.1505,0.1476,0.1365,0.1339,0.1543,0.1527,0.1675,0.1674,0.1674,0.1674,0,0.0847,0.0854,0.0922,0.097,0.0993,0.1058,0.1139,0.119,0.1253,0.1341,0.138,0.1439,0.1479,0.1521,0.1599,0.1564,0.1583,0.1548,0.1377,0.1327,0.1385,0.1371,0.1464,0.1461,0.1457,0.1454,0.1452,0,0.0877,0.0909,0.0971,0.1,0.103,0.111,0.1147,0.1215,0.1256,0.1347,0.1377,0.1435,0.1433,0.1456,0.1429,0.1424,0.1492,0.1287,0.1255,0.1413,0.1375,0.1367,0.1358,0.1145,0.114,0.1136,0.1133,0,0.0945,0.0968,0.1011,0.1049,0.1098,0.1139,0.1197,0.1218,0.1284,0.13,0.1322,0.1331,0.1341,0.1247,0.1205,0.1194,0.1282,0.1204,0.1466,0.1192,0.1109,0.1071,0.1075,0.1099,0.1102,0.1105,0.1107,0.1108,0.1014,0.1052,0.1086,0.1112,0.1154,0.1146,0.1143,0.1164,0.1162,0.1154,0.1194,0.1128,0.1141,0.0985,0.0945,0.0928,0.104,0.1001,0.1015,0.1033,0.0964,0.0877,0.0809,0.0811,0.0812,0.0814,0.0815,0,0.1087,0.111,0.1134,0.1153,0.1152,0.1177,0.1152,0.1102,0.1034,0.1015,0.0975,0.0799,0.0703,0.0743,0.0654,0.0635,0.0666,0.061,0.0653,0.0686,0.0716,0.0634,0.039,0.0389,0.0387,0.0386,0,0,0.1139,0.1163,0.1128,0.1118,0.1136,0.11,0.1057,0.0951,0.0884,0.0736,0.0653,0.0656,0.069,0.0509,0.0487,0.043,0.0559,0.0405,0.0746,0.083,0.0859,0.0939,0.0848,0,0,0,0,0]},{"header":{"parameterUnit":"m.s-1","parameterCategory":2,"la1":30.2991,"la2":30.254,"lo1":-89.0895,"lo2":-89.0444,"dy":0.0017,"dx":0.0017,"nx":28,"ny":28,"refTime":"2026-02-10T09:00:00:Z","depth":"2","parameterNumber":3,"parameterNumberName":"V-component_of_CURRENTS"},"data":[0,0,0,0,0,0,0,0,0,0,0,0,0,0,0,0,0,0,0,0,0,0,0,0,0,0,0,0,0,0,0,0,0,0,0,0,0,0,0,0,0,0,0,0,0,0,0,0,0,0,0,0,0,0,0,0,0,0,0.008,0.008,0,0.0111,0.0111,0.0111,0.0126,0.0126,0.0126,0.0126,0.0127,0.0128,0.0128,0,0,0,0,0,0,0,0,0,0,0,0,0,0.0061,0.0061,0.008,0.008,0.008,0.0111,0.0111,0.0112,0.0126,0.0126,0.0126,0.0126,0.0127,0.0128,0.0128,0,0,0,0,0,0,0,0,0,0,0,0,0,0.0079,0.0061,0.008,0.0091,0.0092,0.011,0.0111,0.0112,0.0126,0.0126,0.0126,0.0126,0.0127,0.0128,0.0128,0.0131,0,0,0.0128,0.0128,0,0,0,0,0,0,0,0,0.0078,0.0079,0.0089,0.009,0.0091,0.0114,0.0105,0.0116,0.0126,0.0114,0.0126,0.0126,0.012,0.0121,0.0128,0.0131,0.0131,0.0128,0.0128,0.0128,0.0128,0,0,0,0,0,0,0,0.0076,0.0078,0.0093,0.0089,0.0091,0.0104,0.0106,0.0108,0.0117,0.0115,0.0116,0.0118,0.012,0.0128,0.0128,0.0131,0.0128,0.0128,0.0128,0.0129,0.0136,0.0136,0,0,0,0,0,0,0.007,0.0077,0.0092,0.0094,0.0083,0.0104,0.0106,0.0107,0.0118,0.0119,0.0118,0.0119,0.0128,0.0128,0.0128,0.0136,0.0128,0.0129,0.0129,0.0136,0.0136,0.0136,0,0,0,0,0,0,0.0069,0.0071,0.009,0.0086,0.0089,0.0104,0.0105,0.0108,0.0114,0.0121,0.0122,0.0121,0.0128,0.0128,0.013,0.0136,0.0129,0.0129,0.0136,0.0136,0.0136,0.0149,0,0,0,0,0,0,0.0068,0.007,0.0075,0.0085,0.0089,0.0104,0.0105,0.0109,0.0116,0.0117,0.0123,0.0124,0.0128,0.0129,0.013,0.0136,0.0129,0.0136,0.0136,0.0136,0.0149,0.015,0.0151,0,0,0,0,0,0.0068,0.0081,0.0075,0.0077,0.0093,0.0104,0.0108,0.0119,0.0116,0.0123,0.0124,0.0123,0.0131,0.013,0.013,0.0136,0.0135,0.0136,0.0136,0.0148,0.015,0.0151,0,0,0,0,0,0,0.0081,0.0084,0.0078,0.0092,0.0095,0.0106,0.0119,0.0117,0.0124,0.0122,0.0125,0.0125,0.0129,0.0129,0.0127,0.0138,0.0133,0.0133,0.0142,0.0144,0.0145,0.0202,0.0129,0,0,0,0,0,0.0083,0.0088,0.009,0.01,0.0102,0.0106,0.0113,0.0114,0.0119,0.0123,0.0127,0.0129,0.0131,0.0134,0.0137,0.0142,0.0162,0.0146,0.0147,0.0148,0.0194,0.0224,0.0233,0.0137,0.0137,0.0137,0,0,0.009,0.0092,0.0096,0.0102,0.0107,0.0122,0.0111,0.0119,0.0133,0.012,0.0142,0.0132,0.0133,0.0141,0.0143,0.0141,0.0176,0.0148,0.0149,0.0196,0.0226,0.0235,0.0244,0.0137,0.0137,0.0137,0,0,0.0109,0.0108,0.0119,0.0127,0.013,0.0132,0.0132,0.0137,0.0143,0.0153,0.0147,0.0151,0.015,0.0163,0.0166,0.0177,0.018,0.0158,0.0214,0.024,0.0249,0.0258,0.0259,0.0267,0.016,0.016,0.016,0,0.0116,0.0133,0.0125,0.0142,0.0155,0.0137,0.0157,0.0162,0.0167,0.0189,0.0162,0.0194,0.0174,0.0213,0.0208,0.0184,0.019,0.0205,0.0244,0.0253,0.0262,0.0261,0.027,0.0161,0.0161,0.016,0.016,0,0.0151,0.0163,0.0173,0.0187,0.0197,0.021,0.0212,0.0227,0.0222,0.0235,0.0267,0.0249,0.0283,0.0252,0.0231,0.0278,0.0257,0.0239,0.0246,0.0273,0.0269,0.0278,0.0162,0.0161,0.0161,0.0161,0,0,0.0165,0.0191,0.0194,0.0217,0.0222,0.0241,0.0264,0.0298,0.0348,0.0335,0.0406,0.038,0.0385,0.039,0.0359,0.0369,0.0393,0.033,0.0331,0.034,0.0438,0.0378,0.0382,0.0377,0.038,0.0382,0.0397,0,0.0192,0.0239,0.0239,0.0286,0.0312,0.0316,0.0354,0.0383,0.0402,0.0466,0.0458,0.0499,0.0431,0.0445,0.0449,0.0424,0.0426,0.0391,0.0405,0.0406,0.0358,0.0395,0.0386,0.0397,0.0407,0.0408,0.0409,0,0.0223,0.0254,0.0301,0.0359,0.0373,0.0397,0.0476,0.0504,0.0574,0.0596,0.064,0.0644,0.0673,0.06,0.0602,0.0581,0.0523,0.0486,0.0485,0.0449,0.0367,0.0378,0.0414,0.0426,0.0424,0.0423,0.0422,0,0.0251,0.0299,0.0342,0.036,0.0418,0.0451,0.0481,0.0548,0.0597,0.0683,0.074,0.0779,0.0797,0.0768,0.0676,0.0652,0.0663,0.0619,0.0512,0.0505,0.0517,0.0508,0.0626,0.0626,0.0626,0.0626,0.0626,0,0.0288,0.0325,0.0362,0.0394,0.0471,0.0489,0.0576,0.0624,0.0702,0.0785,0.0807,0.087,0.0839,0.0832,0.0745,0.0663,0.0717,0.0554,0.0524,0.0513,0.0504,0.0552,0.0543,0.0627,0.0627,0.0626,0.0626,0,0.0321,0.0335,0.04,0.0465,0.0483,0.0542,0.0615,0.0691,0.075,0.0862,0.0894,0.0951,0.0941,0.0884,0.0828,0.074,0.067,0.061,0.0584,0.055,0.0478,0.0469,0.054,0.0538,0.0537,0.0536,0.0535,0,0.0348,0.0379,0.0452,0.0489,0.0515,0.0586,0.0642,0.0707,0.0786,0.09,0.0968,0.0992,0.1009,0.0911,0.0781,0.0658,0.063,0.0549,0.0507,0.0516,0.0479,0.0472,0.0465,0.0512,0.0511,0.051,0.0509,0,0.041,0.0427,0.0484,0.0546,0.0601,0.0674,0.0753,0.0825,0.0916,0.0993,0.1079,0.1092,0.1007,0.0888,0.0711,0.0617,0.0581,0.0525,0.0584,0.052,0.0487,0.045,0.0446,0.0501,0.0502,0.0503,0.0503,0.0503,0.0457,0.051,0.0559,0.0616,0.0672,0.0747,0.0825,0.0901,0.1,0.1112,0.1124,0.1106,0.0999,0.0749,0.0624,0.0491,0.0502,0.0442,0.0447,0.0452,0.0432,0.0397,0.0389,0.039,0.039,0.039,0.039,0,0.0533,0.0558,0.0619,0.069,0.0739,0.0754,0.089,0.0955,0.1055,0.1104,0.1138,0.0981,0.085,0.0714,0.0509,0.0397,0.0402,0.0354,0.0392,0.04,0.0407,0.0386,0.0331,0.033,0.033,0.033,0,0,0.0571,0.0633,0.0649,0.071,0.0751,0.085,0.0928,0.0997,0.105,0.1064,0.1025,0.1009,0.0847,0.0682,0.0549,0.0439,0.0442,0.041,0.0468,0.0537,0.0545,0.0466,0.0442,0,0,0,0,0]}],[{"header":{"parameterUnit":"m.s-1","parameterCategory":2,"la1":30.2991,"la2":30.254,"lo1":-89.0895,"lo2":-89.0444,"dy":0.0017,"dx":0.0017,"nx":28,"ny":28,"refTime":"2026-02-10T09:00:00:Z","depth":"4","parameterNumber":2,"parameterNumberName":"U-component_of_CURRENTS"},"data":[0,0,0,0,0,0,0,0,0,0,0,0,0,0,0,0,0,0,0,0,0,0,0,0,0,0,0,0,0,0,0,0,0,0,0,0,0,0,0,0,0,0,0,0,0,0,0,0,0,0,0,0,0,0,0,0,0,0,0.0177,0.0178,0,0.0238,0.0238,0.0239,0.0258,0.0257,0.0257,0.0257,0.0249,0.0249,0.0248,0,0,0,0,0,0,0,0,0,0,0,0,0,0.0092,0.0093,0.0177,0.0178,0.0179,0.0238,0.0238,0.0239,0.0258,0.0257,0.0257,0.0257,0.0249,0.0249,0.0248,0,0,0,0,0,0,0,0,0,0,0,0,0,0.0136,0.0094,0.0177,0.0197,0.02,0.0238,0.0238,0.0239,0.0258,0.0257,0.0257,0.0257,0.0249,0.0249,0.0248,0.0249,0,0,0.0248,0.0248,0,0,0,0,0,0,0,0,0.0134,0.0139,0.0193,0.0196,0.0199,0.0242,0.0206,0.024,0.0258,0.0233,0.0257,0.0257,0.0242,0.0242,0.0251,0.0249,0.0248,0.0248,0.0247,0.0247,0.0247,0,0,0,0,0,0,0,0.013,0.0137,0.0198,0.0194,0.0198,0.0209,0.0214,0.0212,0.0234,0.0235,0.0237,0.0248,0.0242,0.0252,0.0251,0.0248,0.0248,0.0247,0.0247,0.0247,0.0248,0.0249,0,0,0,0,0,0,0.0128,0.0134,0.0196,0.02,0.0168,0.021,0.0217,0.0226,0.0236,0.0238,0.0248,0.0249,0.0252,0.0251,0.0251,0.0253,0.0247,0.0247,0.0247,0.0248,0.0248,0.0249,0,0,0,0,0,0,0.0125,0.0132,0.0194,0.017,0.0179,0.0212,0.0223,0.0228,0.0249,0.0247,0.0247,0.0266,0.0252,0.0251,0.025,0.0253,0.0247,0.0247,0.0248,0.0248,0.0248,0.0258,0,0,0,0,0,0,0.0123,0.0131,0.0136,0.017,0.0181,0.0218,0.0223,0.0229,0.0256,0.0258,0.0262,0.0261,0.0252,0.0251,0.025,0.0253,0.0247,0.0248,0.0248,0.0248,0.0257,0.0258,0.0259,0,0,0,0,0,0.0119,0.0121,0.0135,0.0143,0.0186,0.0218,0.0224,0.0246,0.0258,0.0265,0.0266,0.0261,0.0253,0.0251,0.025,0.0252,0.0248,0.0248,0.0248,0.0257,0.0258,0.0259,0,0,0,0,0,0,0.0081,0.0124,0.0141,0.0154,0.0187,0.0222,0.0229,0.0255,0.0265,0.0262,0.0264,0.0262,0.0264,0.0258,0.0256,0.0254,0.025,0.025,0.0256,0.0257,0.0258,0.0246,0.0246,0,0,0,0,0,0.0078,0.0093,0.0137,0.0149,0.0162,0.0201,0.0218,0.0238,0.0254,0.0261,0.0268,0.0267,0.0264,0.0261,0.0258,0.0256,0.0269,0.0257,0.0258,0.0259,0.0249,0.0308,0.0314,0.025,0.025,0.025,0,0,0.0067,0.0093,0.0102,0.0143,0.0165,0.018,0.021,0.0235,0.0245,0.0255,0.0263,0.0274,0.0266,0.0263,0.0263,0.0258,0.0279,0.026,0.026,0.0249,0.0309,0.0315,0.0321,0.025,0.025,0.025,0,0,0.005,0.0075,0.0083,0.0105,0.0145,0.0169,0.0181,0.0224,0.0238,0.0252,0.0262,0.0276,0.0271,0.0272,0.0268,0.0274,0.0287,0.0276,0.0265,0.0323,0.0329,0.0335,0.0337,0.0343,0.0272,0.0272,0.0272,0,0.0035,0.0053,0.0089,0.0098,0.0114,0.0164,0.0174,0.0191,0.0231,0.0252,0.0248,0.0276,0.0272,0.0278,0.0272,0.0277,0.0297,0.0262,0.0326,0.0332,0.0337,0.0339,0.0345,0.0272,0.0272,0.0272,0.0272,0,0.0026,0.0037,0.004,0.0068,0.009,0.0106,0.014,0.0169,0.0197,0.0227,0.0255,0.0257,0.0284,0.0279,0.0267,0.0303,0.0299,0.0327,0.0325,0.0345,0.0344,0.0351,0.0273,0.0273,0.0272,0.0272,0,0,0.0004,0.0029,0.0031,0.0043,0.0078,0.0101,0.0115,0.0161,0.0199,0.0217,0.026,0.0247,0.0285,0.0282,0.0291,0.0314,0.0357,0.0329,0.0332,0.0333,0.0454,0.0407,0.0409,0.0412,0.0414,0.0415,0.043,0,-0.001,-0.0004,0.0015,0.0028,0.0038,0.0081,0.0102,0.0147,0.0191,0.0244,0.0258,0.0299,0.0276,0.0306,0.0325,0.0365,0.0378,0.0348,0.0432,0.0433,0.0393,0.0417,0.0421,0.0435,0.0436,0.0437,0.0438,0,-0.0021,-0.001,-0.0006,0.003,0.0041,0.0059,0.0131,0.0157,0.023,0.0269,0.0312,0.0344,0.0371,0.0363,0.0416,0.0405,0.0421,0.0433,0.0436,0.0392,0.0399,0.0417,0.045,0.0449,0.0448,0.0447,0.0447,0,-0.0034,-0.0022,-0.0013,-0.0007,0.0037,0.0064,0.0101,0.0175,0.022,0.0304,0.0356,0.0397,0.0436,0.0467,0.048,0.0471,0.0534,0.054,0.0497,0.0492,0.0526,0.052,0.0578,0.0578,0.0578,0.0578,0.0578,0,-0.0048,-0.0042,-0.0014,-0.0005,0.0033,0.0065,0.0129,0.0182,0.0263,0.0319,0.0379,0.042,0.0473,0.0511,0.0509,0.0516,0.057,0.0488,0.0504,0.0524,0.0518,0.0529,0.0523,0.0578,0.0578,0.0578,0.0578,0,-0.0061,-0.0054,-0.0035,0.0009,0.003,0.0063,0.0146,0.0193,0.0277,0.0353,0.0384,0.0465,0.0511,0.0536,0.0587,0.0558,0.057,0.0557,0.0544,0.056,0.0471,0.0465,0.0509,0.0507,0.0506,0.0505,0.0504,0,-0.007,-0.0063,-0.0019,-0.0003,0.002,0.0074,0.0115,0.0199,0.0248,0.0363,0.0391,0.0469,0.0508,0.0534,0.056,0.0562,0.0551,0.0545,0.0516,0.0458,0.0469,0.0465,0.0461,0.0503,0.0502,0.0502,0.0502,0,-0.0077,-0.0059,-0.0038,-0.0007,0.0029,0.0072,0.0134,0.0174,0.0264,0.0335,0.04,0.0435,0.0481,0.0503,0.0521,0.0515,0.0547,0.0533,0.0535,0.0507,0.0452,0.0463,0.046,0.0498,0.0499,0.0499,0.0499,0,-0.0077,-0.0062,-0.0039,-0.0008,0.0022,0.0058,0.0101,0.0156,0.0217,0.0337,0.0345,0.0418,0.0471,0.0478,0.0487,0.0491,0.0471,0.0445,0.0451,0.0455,0.0431,0.0352,0.0381,0,0,0,0,0,-0.0079,-0.0064,-0.0043,-0.0013,0.0009,0.003,0.0102,0.0143,0.0226,0.026,0.0309,0.0346,0.0383,0.0413,0.0404,0.0446,0.0464,0.0432,0.0434,0.0477,0.0481,0.0458,0,0,0,0,0,0,-0.0085,-0.0066,-0.0049,-0.0035,-0.002,0.0011,0.0056,0.0115,0.0142,0.0224,0.0248,0.0301,0.0341,0.0378,0.0388,0.0396,0.0384,0.047,0.0468,0.0474,0.0478,0.0482,0.046,0,0,0,0,0]},{"header":{"parameterUnit":"m.s-1","parameterCategory":2,"la1":30.2991,"la2":30.254,"lo1":-89.0895,"lo2":-89.0444,"dy":0.0017,"dx":0.0017,"nx":28,"ny":28,"refTime":"2026-02-10T09:00:00:Z","depth":"4","parameterNumber":3,"parameterNumberName":"V-component_of_CURRENTS"},"data":[0,0,0,0,0,0,0,0,0,0,0,0,0,0,0,0,0,0,0,0,0,0,0,0,0,0,0,0,0,0,0,0,0,0,0,0,0,0,0,0,0,0,0,0,0,0,0,0,0,0,0,0,0,0,0,0,0,0,0.0073,0.0074,0,0.0085,0.0085,0.0085,0.0102,0.0103,0.0103,0.0103,0.0123,0.0123,0.0123,0,0,0,0,0,0,0,0,0,0,0,0,0,0.0077,0.0077,0.0073,0.0074,0.0074,0.0085,0.0085,0.0085,0.0102,0.0103,0.0103,0.0103,0.0123,0.0123,0.0124,0,0,0,0,0,0,0,0,0,0,0,0,0,0.0081,0.0077,0.0073,0.0083,0.0084,0.0085,0.0085,0.0085,0.0102,0.0103,0.0103,0.0103,0.0123,0.0123,0.0124,0.0119,0,0,0.0125,0.0125,0,0,0,0,0,0,0,0,0.0081,0.0081,0.0082,0.0082,0.0083,0.0092,0.0093,0.0097,0.0102,0.0096,0.0103,0.0104,0.0113,0.0114,0.0116,0.012,0.0121,0.0125,0.0125,0.0125,0.0126,0,0,0,0,0,0,0,0.008,0.0081,0.0079,0.0082,0.0083,0.009,0.0091,0.0094,0.0103,0.0097,0.0098,0.0098,0.0113,0.0116,0.0117,0.0121,0.0125,0.0125,0.0126,0.0126,0.014,0.014,0,0,0,0,0,0,0.0077,0.008,0.0078,0.0079,0.0082,0.009,0.0091,0.0089,0.0103,0.0105,0.0097,0.0098,0.0115,0.0116,0.0117,0.0141,0.0125,0.0126,0.0126,0.014,0.014,0.0141,0,0,0,0,0,0,0.0077,0.0076,0.0078,0.0079,0.008,0.0089,0.0087,0.0089,0.0093,0.0103,0.0106,0.0099,0.0115,0.0117,0.0125,0.0141,0.0126,0.0126,0.014,0.014,0.014,0.0169,0,0,0,0,0,0,0.0077,0.0076,0.0077,0.0079,0.008,0.0086,0.0087,0.0089,0.0092,0.0094,0.0105,0.0108,0.0115,0.0124,0.0126,0.0141,0.0127,0.014,0.014,0.014,0.0168,0.017,0.0172,0,0,0,0,0,0.0077,0.0082,0.0077,0.0077,0.008,0.0087,0.0088,0.0096,0.0092,0.0099,0.0104,0.0107,0.0127,0.0125,0.0126,0.0142,0.014,0.014,0.014,0.0167,0.017,0.0172,0,0,0,0,0,0,0.0088,0.0083,0.0079,0.0083,0.0086,0.0089,0.0099,0.0094,0.0102,0.0103,0.0108,0.0111,0.0125,0.0123,0.0121,0.0145,0.0134,0.0135,0.0154,0.0157,0.0159,0.0162,0.0127,0,0,0,0,0,0.0088,0.0088,0.0086,0.0089,0.0092,0.0091,0.0095,0.0095,0.01,0.0104,0.0112,0.0117,0.0125,0.0133,0.0139,0.015,0.0131,0.016,0.0162,0.0164,0.0167,0.0146,0.0147,0.0141,0.0141,0.0141,0,0,0.0093,0.009,0.0091,0.0091,0.0095,0.0111,0.0095,0.0101,0.0117,0.0104,0.013,0.0124,0.0128,0.0146,0.0152,0.0149,0.0154,0.0165,0.0166,0.0168,0.0147,0.0147,0.0148,0.0142,0.0142,0.0142,0,0,0.0112,0.0102,0.0114,0.0119,0.0121,0.0122,0.0122,0.0125,0.0131,0.0145,0.014,0.014,0.0158,0.0163,0.0168,0.0181,0.0163,0.0183,0.0202,0.0182,0.0183,0.0183,0.0151,0.0148,0.0187,0.0187,0.0188,0,0.0123,0.0134,0.012,0.0138,0.0149,0.0129,0.0152,0.0155,0.016,0.0162,0.016,0.0163,0.017,0.0179,0.0191,0.0188,0.0166,0.0195,0.0185,0.0185,0.0185,0.0152,0.0149,0.0189,0.0189,0.0189,0.0188,0,0.0155,0.0167,0.0177,0.0193,0.0201,0.0214,0.0215,0.0218,0.0215,0.0213,0.0213,0.0207,0.0208,0.021,0.0212,0.0211,0.0193,0.0188,0.018,0.0187,0.0152,0.0148,0.0191,0.019,0.019,0.019,0,0,0.0179,0.0197,0.0203,0.0217,0.023,0.0236,0.0259,0.0267,0.027,0.0266,0.0265,0.0276,0.0251,0.0253,0.0239,0.0226,0.0208,0.0211,0.0209,0.0182,0.0152,0.0169,0.0165,0.02,0.02,0.0199,0.0126,0,0.0214,0.0251,0.0254,0.0294,0.0313,0.0305,0.0325,0.0324,0.0318,0.0311,0.0284,0.0283,0.0274,0.0267,0.0251,0.022,0.0199,0.0227,0.0147,0.0145,0.0161,0.0163,0.0198,0.0122,0.0121,0.0121,0.012,0,0.0255,0.0269,0.0313,0.0333,0.0341,0.0365,0.0374,0.0388,0.037,0.0361,0.0339,0.031,0.029,0.0276,0.0221,0.0238,0.0201,0.017,0.0166,0.0171,0.0155,0.0115,0.0112,0.0113,0.0113,0.0114,0.0114,0,0.0275,0.0314,0.0345,0.0356,0.0376,0.0396,0.0409,0.0406,0.0413,0.0389,0.038,0.0337,0.0318,0.0266,0.0218,0.0215,0.0146,0.0132,0.0104,0.0103,0.0096,0.0097,0.0086,0.0086,0.0086,0.0087,0.0087,0,0.031,0.0336,0.0358,0.0375,0.0407,0.0418,0.0446,0.0447,0.0443,0.0443,0.0407,0.0383,0.0317,0.0268,0.0215,0.0154,0.0144,0.0106,0.009,0.0108,0.0111,0.0092,0.0094,0.0084,0.0084,0.0085,0.0085,0,0.0326,0.0346,0.0375,0.0402,0.0419,0.044,0.0478,0.0487,0.0489,0.0483,0.0477,0.042,0.0359,0.029,0.0201,0.0161,0.0095,0.0074,0.0096,0.0082,0.0057,0.0061,0.0021,0.0021,0.0021,0.0021,0.0021,0,0.0334,0.0354,0.0389,0.0409,0.0428,0.0465,0.0489,0.0509,0.0516,0.0501,0.049,0.0436,0.039,0.0277,0.0203,0.0099,0.0088,0.005,0.0056,0.0065,0.0053,0.0057,0.006,0.0021,0.0021,0.0021,0.0021,0,0.0338,0.0353,0.0366,0.0408,0.0444,0.0485,0.0522,0.0529,0.054,0.054,0.0503,0.0442,0.0368,0.0274,0.0208,0.0129,0.0074,0.005,0.0049,0.0055,0.0064,0.0054,0.0057,0.0021,0.0021,0.0021,0.0021,0,0.0331,0.0338,0.036,0.0399,0.0445,0.0493,0.0513,0.0528,0.0541,0.0529,0.0509,0.0437,0.0392,0.0288,0.0218,0.0158,0.013,0.0106,0.0101,0.01,0.0155,0.0181,0.016,0,0,0,0,0,0.0326,0.0336,0.0356,0.04,0.0447,0.0492,0.0526,0.054,0.0549,0.0531,0.0528,0.0461,0.0358,0.03,0.0241,0.0205,0.0113,0.0133,0.0082,0.0023,0.0023,0.0077,0,0,0,0,0,0,0.0317,0.0335,0.0343,0.0398,0.0443,0.0504,0.0536,0.0546,0.0533,0.0528,0.0471,0.0454,0.0348,0.0403,0.0246,0.0225,0.0184,0.0087,0.0085,0.0023,0.0023,0.0023,0.0078,0,0,0,0,0]}]]